OE3PDB-3 Weather Reports


Display with metric or nautical units.
time (UTC)temp
F
wind
direction
speed
MPH
gust
MPH
rain 1hr
in
rain 24hr
in
rain mn
in
humidity
%
barometer
mb
20260507043042 52 112 0.0 0.0 0.00 0.00 0.00 72 1010.7
20260507042042 52 45 0.0 0.0 0.00 0.00 0.00 71 1010.6
20260507041042 52 157 0.0 0.0 0.00 0.00 0.00 71 1010.4
20260507040042 52 22 0.0 0.0 0.00 0.00 0.00 71 1010.3
20260507035042 52 337 0.0 0.0 0.00 0.00 0.00 71 1010.2
20260507034042 52 292 0.0 0.0 0.00 0.00 0.00 71 1010.2
20260507033042 53 135 0.0 0.0 0.00 0.00 0.00 71 1010.1
20260507032042 53 0 0.0 0.0 0.00 0.00 0.00 70 1009.9
20260507031042 53 67 0.0 0.0 0.00 0.00 0.00 70 1009.9
20260507030042 53 22 0.0 0.0 0.00 0.00 0.00 70 1010.0
20260507025042 53 157 0.0 0.0 0.00 0.00 0.00 70 1009.9
20260507024043 53 67 0.0 0.0 0.00 0.00 0.00 70 1009.9
20260507023043 54 67 0.0 0.0 0.00 0.00 0.00 70 1009.8
20260507022043 54 292 0.0 0.0 0.00 0.00 0.00 70 1009.6
20260507021043 54 315 0.0 0.0 0.00 0.00 0.00 71 1009.7
20260507020043 54 0 0.0 0.0 0.00 0.00 0.00 71 1009.4
20260507015043 54 315 0.0 0.0 0.00 0.00 0.00 71 1009.4
20260507014043 54 22 0.0 0.0 0.00 0.00 0.00 72 1009.5
20260507013043 55 45 0.0 0.0 0.00 0.00 0.00 72 1009.4
20260507012043 55 157 0.0 0.0 0.00 0.00 0.00 72 1009.3
20260507011043 55 292 0.0 0.0 0.00 0.00 0.00 72 1009.3
20260507010043 55 135 0.0 0.0 0.00 0.00 0.00 72 1009.2
20260507005043 55 135 0.0 0.0 0.00 0.00 0.00 72 1009.0
20260507004043 55 202 0.0 0.0 0.00 0.00 0.00 72 1008.9
20260507003043 56 315 0.0 0.0 0.00 0.00 0.00 71 1008.9
20260507002043 56 270 0.0 0.0 0.00 0.00 0.00 71 1008.8
20260507001043 56 45 0.0 0.0 0.00 0.00 0.00 71 1008.9
20260506235041 56 67 0.0 0.0 0.00 0.00 0.00 71 1008.5
20260506234041 57 337 0.0 0.0 0.00 0.00 0.00 71 1008.5
20260506233041 57 337 0.0 0.0 0.00 0.00 0.00 72 1008.5
20260506232041 57 225 0.0 0.0 0.00 0.00 0.00 73 1008.5
20260506231041 57 180 0.0 0.0 0.00 0.00 0.00 73 1008.2
20260506230041 57 45 0.0 0.0 0.00 0.00 0.00 72 1007.9
20260506225042 57 225 0.0 0.0 0.00 0.00 0.00 72 1007.8
20260506224042 58 0 0.0 0.0 0.00 0.00 0.00 71 1007.7
20260506223042 58 90 0.0 0.0 0.00 0.00 0.00 68 1007.6
20260506222042 58 0 0.0 0.0 0.00 0.00 0.00 67 1007.4
20260506221042 59 247 0.0 0.0 0.00 0.00 0.00 66 1006.9
20260506220042 59 270 0.0 0.0 0.00 0.00 0.00 65 1006.7
20260506215042 59 225 0.0 0.0 0.00 0.00 0.00 63 1006.6
20260506214042 60 202 0.0 0.0 0.00 0.00 0.00 63 1006.6
20260506213042 60 315 0.0 0.0 0.00 0.00 0.00 62 1006.5
20260506212042 60 22 0.0 0.0 0.00 0.00 0.00 62 1006.2
20260506211042 60 247 0.0 0.0 0.00 0.00 0.00 62 1006.0
20260506210042 60 247 0.0 0.0 0.00 0.00 0.00 62 1005.7
20260506205042 61 270 0.0 0.0 0.00 0.00 0.00 61 1005.6
20260506204042 62 270 0.0 0.0 0.00 0.00 0.00 59 1005.5
20260506203042 62 270 0.0 0.0 0.00 0.00 0.00 58 1005.4
20260506202042 62 270 0.0 0.0 0.00 0.00 0.00 57 1005.2
20260506201042 63 270 0.0 0.0 0.00 0.00 0.00 57 1005.1
20260506200042 63 270 0.0 0.0 0.00 0.00 0.00 57 1004.9
20260506195042 64 270 0.0 0.0 0.00 0.00 0.00 57 1004.9
20260506194042 64 270 0.0 0.0 0.00 0.00 0.00 56 1004.7
20260506193042 64 270 0.0 0.0 0.00 0.00 0.00 56 1004.5
20260506192042 64 270 0.0 0.0 0.00 0.00 0.00 55 1004.4
20260506191042 65 247 0.0 0.0 0.00 0.00 0.00 54 1004.3
20260506190042 65 270 0.0 0.0 0.00 0.00 0.00 53 1004.2
20260506185042 66 270 0.0 0.0 0.00 0.00 0.00 53 1004.2
20260506184042 66 270 0.0 0.0 0.00 0.00 0.00 52 1004.1
20260506183042 66 270 0.0 0.0 0.00 0.00 0.00 52 1004.1
20260506182042 66 270 0.0 0.0 0.00 0.00 0.00 51 1003.7
20260506181042 67 270 0.0 0.0 0.00 0.00 0.00 51 1004.0
20260506180042 67 270 0.0 0.0 0.00 0.00 0.00 51 1003.7
20260506175042 68 270 0.0 0.0 0.00 0.00 0.00 50 1003.5
20260506174042 68 247 0.0 0.0 0.00 0.00 0.00 50 1003.6
20260506173042 68 270 0.0 0.0 0.00 0.00 0.00 49 1003.6
20260506172042 69 270 0.0 0.0 0.00 0.00 0.00 49 1003.6
20260506171042 69 270 0.0 0.0 0.00 0.00 0.00 49 1003.6
20260506170042 69 270 0.0 0.0 0.00 0.00 0.00 48 1003.7
20260506165042 70 270 0.0 0.0 0.00 0.00 0.00 48 1004.0
20260506164042 70 247 0.0 0.0 0.00 0.00 0.00 48 1003.9
20260506163042 70 270 0.0 0.0 0.00 0.00 0.00 47 1004.0
20260506162042 71 270 0.0 0.0 0.00 0.00 0.00 47 1004.0
20260506161043 71 270 0.0 0.0 0.00 0.00 0.00 46 1004.1
20260506160042 72 225 0.0 0.0 0.00 0.00 0.00 45 1004.0
20260506155042 73 270 0.0 0.0 0.00 0.00 0.00 45 1004.0
20260506154042 73 270 0.0 0.0 0.00 0.00 0.00 43 1004.0
20260506153042 74 270 0.0 0.0 0.00 0.00 0.00 42 1004.0
20260506152042 74 270 0.0 0.0 0.00 0.00 0.00 41 1004.1
20260506151042 74 270 0.0 0.0 0.00 0.00 0.00 41 1004.0
20260506150042 75 270 0.0 0.0 0.00 0.00 0.00 40 1004.0
20260506145042 75 270 0.0 0.0 0.00 0.00 0.00 39 1004.0
20260506144042 75 270 0.0 0.0 0.00 0.00 0.00 39 1004.1
20260506143043 75 270 0.0 0.0 0.00 0.00 0.00 38 1004.1
20260506142043 76 247 0.0 0.0 0.00 0.00 0.00 39 1004.2
20260506141043 76 225 0.0 0.0 0.00 0.00 0.00 39 1004.1
20260506140043 75 270 0.0 0.0 0.00 0.00 0.00 39 1004.3
20260506135043 76 270 0.0 0.0 0.00 0.00 0.00 39 1004.3
20260506134043 76 247 0.0 0.0 0.00 0.00 0.00 38 1004.4
20260506133043 76 270 0.0 0.0 0.00 0.00 0.00 38 1004.5
20260506132043 76 247 0.0 0.0 0.00 0.00 0.00 38 1004.6
20260506131043 75 247 0.0 0.0 0.00 0.00 0.00 39 1004.7
20260506130043 74 270 0.0 0.0 0.00 0.00 0.00 40 1005.1
20260506125043 72 270 0.0 0.0 0.00 0.00 0.00 42 1005.1
20260506124043 71 270 0.0 0.0 0.00 0.00 0.00 43 1005.2
20260506123043 71 247 0.0 0.0 0.00 0.00 0.00 43 1005.5
20260506122043 71 270 0.0 0.0 0.00 0.00 0.00 44 1005.6
20260506121043 71 270 0.0 0.0 0.00 0.00 0.00 45 1005.6
20260506120043 71 247 0.0 0.0 0.00 0.00 0.00 45 1005.8
20260506115043 71 225 0.0 0.0 0.00 0.00 0.00 45 1005.9
20260506114043 71 270 0.0 0.0 0.00 0.00 0.00 44 1005.9
20260506113043 72 247 0.0 0.0 0.00 0.00 0.00 46 1006.0
20260506112043 71 270 0.0 0.0 0.00 0.00 0.00 47 1006.0
20260506111043 71 270 0.0 0.0 0.00 0.00 0.00 46 1006.2
20260506110043 71 270 0.0 0.0 0.00 0.00 0.00 47 1006.4
20260506105043 71 270 0.0 0.0 0.00 0.00 0.00 47 1006.6
20260506104043 71 270 0.0 0.0 0.00 0.00 0.00 47 1006.7
20260506103043 71 270 0.0 0.0 0.00 0.00 0.00 47 1006.7
20260506102043 71 270 0.0 0.0 0.00 0.00 0.00 48 1006.7
20260506101043 72 247 0.0 0.0 0.00 0.00 0.00 46 1006.8
20260506100043 72 247 0.0 0.0 0.00 0.00 0.00 45 1006.9
20260506095043 72 247 0.0 0.0 0.00 0.00 0.00 45 1007.3
20260506094043 71 225 0.0 0.0 0.00 0.00 0.00 45 1007.5
20260506093043 72 247 0.0 0.0 0.00 0.00 0.00 45 1007.6
20260506092043 72 270 0.0 0.0 0.00 0.00 0.00 44 1007.6
20260506091043 72 247 0.0 0.0 0.00 0.00 0.00 44 1007.7
20260506090043 73 247 0.0 0.0 0.00 0.00 0.00 43 1007.8
20260506085043 74 225 0.0 0.0 0.00 0.00 0.00 42 1007.8
20260506084043 76 270 0.0 0.0 0.00 0.00 0.00 40 1007.9
20260506083043 77 247 0.0 0.0 0.00 0.00 0.00 39 1007.9
20260506082043 79 247 0.0 0.0 0.00 0.00 0.00 36 1007.9
20260506081043 84 247 0.0 0.0 0.00 0.00 0.00 37 1007.9
20260506073043 82 67 0.0 0.0 0.00 0.00 0.00 40 1008.3
20260506072043 79 67 0.0 0.0 0.00 0.00 0.00 43 1008.3
20260506071043 75 67 0.0 0.0 0.00 0.00 0.00 49 1008.3
20260506062044 61 67 0.0 0.0 0.00 0.00 0.00 64 1008.7
20260506061044 60 135 0.0 0.0 0.00 0.00 0.00 66 1008.6
20260506051044 58 67 0.0 0.0 0.00 0.00 0.00 72 1008.7
20260506045044 56 67 0.0 0.0 0.00 0.00 0.00 73 1008.7
20260506044044 56 67 0.0 0.0 0.00 0.00 0.00 74 1008.5